Weather History for KLGU - September, 2012

Change the Weather History Date:

Thursday, September 13, 2012

  Actual Average Record
Temperature  
Mean Temperature 57 °F -  
Max Temperature 81 °F - - ()
Min Temperature 34 °F - - ()
Degree Days  
Heating Degree Days 8    
Growing Degree Days 7 (Base 50)    
Moisture  
Dew Point 26 °F    
Average Humidity 39    
Maximum Humidity 73    
Minimum Humidity 8    
Precipitation  
Precipitation 0.00 in - - ()
Sea Level Pressure  
Sea Level Pressure 30.33 in    
Wind  
Wind Speed 1 mph (NNW)    
Max Wind Speed 5 mph    
Max Gust Speed -    
Visibility 10 miles    
Events      
T = Trace of Precipitation, MM = Missing Value Source: NWS Daily Summary

Daily Weather History Graph

Daily Weather History Graph

Search for Another Location

Airport or City:

Trip Planner

Search our weather history database for the weather conditions in past years. The results will help you decide how hot, cold, wet, or windy it might be!

Date:

Astronomy

Sep. 13, 2012 Rise Set
Actual Time 7:06 AM MDT 7:39 PM MDT
Civil Twilight 6:38 AM MDT 8:07 PM MDT
Nautical Twilight 6:05 AM MDT 8:40 PM MDT
Astronomical Twilight 5:30 AM MDT 9:14 PM MDT
Moon 4:27 AM MDT (9/13) 6:05 PM MDT (9/13)
Length of Visible Light 13h 29m
Length of Day
12h 33m
Waning Crescent, 7% of the Moon is Illuminated
Sep 13
Waning Crescent
Sep 15
New
Sep 22
First Quarter
Sep 29
Full
Oct 8
Last Quarter

Hourly Weather History & Observations

Time (MDT) Temp. Dew Point Humidity Pressure Visibility Wind Dir Wind Speed Gust Speed Precip Events Conditions
12:51 AM 43.0 °F 28.0 °F 56% 30.32 in 10.0 mi Calm Calm - N/A   Clear
1:51 AM 39.0 °F 27.0 °F 62% 30.33 in 10.0 mi Calm Calm - N/A   Clear
2:51 AM 42.1 °F 30.0 °F 62% 30.32 in 10.0 mi Calm Calm - N/A   Clear
3:51 AM 36.0 °F 26.1 °F 67% 30.35 in 10.0 mi Calm Calm - N/A   Clear
4:51 AM 37.9 °F 27.0 °F 65% 30.35 in 10.0 mi Calm Calm - N/A   Clear
5:51 AM 34.0 °F 26.1 °F 73% 30.37 in 10.0 mi Calm Calm - N/A   Clear
6:51 AM 36.0 °F 26.1 °F 67% 30.38 in 10.0 mi Calm Calm - N/A   Clear
8:51 AM 44.1 °F 30.0 °F 58% 30.44 in 10.0 mi Calm Calm - N/A   Clear
9:51 AM 52.0 °F 27.0 °F 38% 30.43 in 10.0 mi WNW 3.5 mph - N/A   Clear
10:51 AM 57.9 °F 25.0 °F 28% 30.40 in 10.0 mi NNE 3.5 mph - N/A   Clear
11:51 AM 62.1 °F 21.0 °F 21% 30.39 in 10.0 mi Calm Calm - N/A   Clear
12:51 PM 68.0 °F 24.1 °F 19% 30.37 in 10.0 mi SW 3.5 mph - N/A   Clear
1:51 PM 72.0 °F 24.1 °F 17% 30.34 in 10.0 mi Variable 3.5 mph - N/A   Clear
2:51 PM 77.0 °F 16.0 °F 10% 30.29 in 10.0 mi NNE 4.6 mph - N/A   Clear
3:51 PM 79.0 °F 12.9 °F 8% 30.28 in 10.0 mi North 4.6 mph - N/A   Clear
4:51 PM 80.1 °F 16.0 °F 9% 30.26 in 10.0 mi Calm Calm - N/A   Clear
5:51 PM 79.0 °F 21.0 °F 12% 30.25 in 10.0 mi SSW 4.6 mph - N/A   Clear
6:51 PM 75.9 °F 28.0 °F 17% 30.25 in 10.0 mi SSW 4.6 mph - N/A   Clear
7:51 PM 69.1 °F 28.9 °F 22% 30.27 in 10.0 mi ESE 3.5 mph - N/A   Clear
8:51 PM 62.1 °F 30.9 °F 31% 30.28 in 10.0 mi Calm Calm - N/A   Clear
9:51 PM 55.0 °F 33.1 °F 43% 30.29 in 10.0 mi Calm Calm - N/A   Clear
10:51 PM 51.1 °F 35.1 °F 54% 30.30 in 10.0 mi Calm Calm - N/A   Clear
11:51 PM 51.1 °F 34.0 °F 52% 30.30 in 10.0 mi NE 3.5 mph - N/A   Clear